FLOCK 4Y-28 (55033 NORAD) Tracking and Keplerian Element Data

This shows tracking and keplerian element data for the satellite.

Feedback or suggestion? Click here.




ElementValue
Catalog55033
NameFLOCK 4Y-28
Epoch Orbit1245
Epoch Day84.89851533
Epoch Year2023
RAAN145.7103
Inclination97.4843
Eccentricity0.0010152
Argument of Perigee294.2689
Mean Anonmoly65.7483
Mean Motion15.16072336
Decay Rate0.00013818
L11 55033U 23001AA 23084.89851533 .00013818 00000+0 71975-3 0 9993
L22 55033 97.4843 145.7103 0010152 294.2689 65.7483 15.16072336 12452



Live tracking and technical data element details for FLOCK 4Y-28 (NORAD 55033). FLOCK 4Y-28 can be tracked NOW for your location showing map with azimuth and elevation plus other details from your city location.







IsCatalogInMostPopularTable: catalog: 55033, numindb: 10
Update: records affected: 1



GetName: 55033 FLOCK 4Y-28

Hit Count: updated at: Mon, 27 Mar 2023 07:44:33 GMT